Regional Weather Roundup
Issued by NWS Charleston, SC

Home | Current Version | Previous Version | Text Only | Print | Product List | Glossary On
Versions: 1 2 3 4 5 6 7 8 9 10 11 12 13 14 15 16 17 18 19 20 21 22 23 24 25 26 27 28 29 30 31 32 33 34 35 36 37 38 39 40 41 42 43 44 45 46 47 48 49 50
000
ASUS42 KCHS 310428
RWRCHS

REGIONAL WEATHER ROUNDUP
NATIONAL WEATHER SERVICE CHARLESTON SC
1200 AM EDT TUE MAY 31 2016

NOTE: "FAIR" INDICATES FEW OR NO CLOUDS BELOW 12,000 FEET WITH NO
SIGNIFICANT WEATHER AND/OR OBSTRUCTIONS TO VISIBILITY.

NOT ALL STATIONS ARE QUALITY CONTROLLED. USE DATA WITH CAUTION...
ESPECIALLY DEWPOINT OBSERVATIONS.

SCZ027-030-031-034>040-042>050-310500-
...SOUTHEAST SOUTH CAROLINA...

CITY           SKY/WX    TMP DP  RH WIND       PRES   REMARKS
N CHARLESTON   LGT RAIN  72  70  93 NW7       29.90S
WATERFRONT PRK   N/A     72  72 100 CALM      29.88S
MOUNT PLEASANT MOCLDY    72  72 100 CALM      29.89S FOG
JOHNS ISLAND   CLOUDY    73  72  94 W5        29.90S
PINOPOLIS        N/A     75  72  88 NE7       29.82F
MONCKS CORNER  FAIR      68  66  94 CALM      29.90S
SUMMERVILLE    MOCLDY    70  70 100 CALM      29.92S
BEAUFORT MCAS  CLOUDY    73  70  90 CALM      29.92F
BEAUFORT ARPT  CLOUDY    72  70  94 CALM      29.92F
HILTON HEAD IS DRIZZLE   73  73 100 CALM      29.92F
WALTERBORO     MOCLDY    72  72 100 CALM      29.92F
ALLENDALE      FAIR      72  72 100 CALM      29.91F FOG

...SOUTHERN MIDLANDS AND PEE DEE...

CITY           SKY/WX    TMP DP  RH WIND       PRES   REMARKS
GEORGETOWN     CLOUDY    70  70 100 NE6       29.90F
KINGSTREE      FOG       70  68  94 CALM      29.91S VSB 1/2
ORANGEBURG     PTCLDY    71  69  93 CALM      29.92F
BARNWELL       FAIR      72  72 100 CALM      29.93F
AIKEN          FAIR      68  66  94 CALM      29.97S
MANNING        CLOUDY    70  68  94 CALM      29.91S
COLUMBIA       PTCLDY    75  69  81 N7        29.92S
SUMTER         PTCLDY    71  70  96 N5        29.90S
FLORENCE       MOCLDY    73  71  93 N6        29.92F
MYRTLE BEACH   CLEAR     73  64  73 E5        29.92S
N MYRTLE BEACH MOCLDY    74  70  87 SE3       29.89F

$$

GAZ063-065-086>088-099>101-113>116-118-119-134>141-150-310500-
...SOUTHEAST GEORGIA...

CITY           SKY/WX    TMP DP  RH WIND       PRES   REMARKS
SAVANNAH ARPT  PTCLDY    74  69  85 E3        29.92F
HUNTER AAF     PTCLDY    76  74  93 VRB2      29.89F
FORT STEWART   NOT AVBL
STATESBORO     CLEAR     71  70  96 CALM      29.92S
SYLVANIA       CLEAR     72  70  92 CALM      29.93S
CLAXTON        FAIR      70  70  99 CALM      29.91F

...CSRA...CENTRAL AND FAR SOUTHEAST GEORGIA...

CITY           SKY/WX    TMP DP  RH WIND       PRES   REMARKS
THOMSON        PTCLDY    72  70  95 CALM      29.97F
AUGUSTA-BUSH   CLEAR     69  66  90 SW3       29.92S
AUGUSTA-DANIEL CLEAR     77  66  68 SE5       29.94S
SWAINSBORO     FAIR      72  68  88 CALM      29.92F
VIDALIA        CLEAR     73  66  78 CALM      29.91F
EASTMAN        FAIR      71  71 100 CALM      29.95S
HAZLEHURST     FAIR      74  67  77 CALM      29.91S
ALMA           CLEAR     69  67  93 CALM      29.92F
WAYCROSS       CLEAR     73  66  80 SW5       29.93S
JESUP          FAIR      66  63  88 CALM      29.92F
BAXLEY         FAIR      72  70  94 CALM      29.91F
BRUNSWICK      CLEAR     82  77  83 S3        29.92F HX  91
SAINT SIMONS   CLEAR     79  76  90 S5        29.92F

$$

SCZ027-028-034-036>038-045-046-048>050-GAZ119-141-310500-
...LAKE AND SUPPLEMENTAL COASTAL OBSERVATIONS...

STATION/POSITION TIME  TEMP    WIND        PRES    WAVE   SWELL
                       AIR SEA DIR/SP/G            HT/PER HT/PER/DIR
                 (UTC) (F)     (DEG/KT/KT) (MB)    (FT/S) (FT/S/D)
WINYAH BAY       0300   74     100/  5     1012.0
LAKE MURRAY      0300   74        CALM     1013.2R
ACE BASIN NERRS  0300   72        CALM     1013.0S
FORT PULASKI     0400   75 76   10/  6/  9 1013.3
SAPELO ISLAND    0400   77     170/  6     1013.0S

$$

ANZ835-935-AMZ111-154-330-350-352-354-370-450-454-472-310500-
...C-MAN AND BUOY OBSERVATIONS...

STATION/POSITION TIME  TEMP    WIND        PRES    WAVE   SWELL
                       AIR SEA DIR/SP/G            HT/PER HT/PER/DIR
                 (UTC) (F)     (DEG/KT/KT) (MB)    (FT/S) (FT/S/D)
BUOY 41004       0350   75 77  210/  8/ 10 1011.4F   4/ 9   3/ 9
BUOY 41008       0350   78 78  170/ 14/ 17 1012.7F   3/ 8   2/ 80/ 8
FOLLY BEACH CMAN 0400   71     270/  3/  6 1012.6S
CAPERS NEARSHORE 0408   73 76  350/ 14/ 17 1011.6R
FRIPP NEARSHORE  0408   73 76  180/  6/  8 1012.6F


STATION/POSITION TIME  TEMP    WIND        PRES    WAVE   SWELL
                       AIR SEA DIR/SP/G            HT/PER HT/PER/DIR
                 (UTC) (F)     (DEG/KT/KT) (MB)    (FT/S) (FT/S/D)
5E ST. MARYS GA  0401      79                N/A     3/ 8
FRYING PAN BUOY  0400   77 78  170/  2/  4 1012.5F
BUOY 41025       0350   77 80  230/ 12/ 14 1013.7F   5/ 7   5/170/ 7
CAPE LOOKOUT NC  0400   75     120/  5/  5 1013.2F
BUOY 41002       0350   76 76  170/ 12/ 14 1015.5F   5/ 8   5/ 90/ 8
BUOY 41010       0320   80 80  190/  8/ 10 1015.4F
ST AUGUSTINE FL  0400   75 80  240/  7/  9 1014.8F


$$




USA.gov is the U.S. government's official web portal to all federal, state and local government web resources and services.